Aviation Digital Data Service (ADDS)

Output produced by METARs form (2055 UTC 29 May 2017)
found at http://www.aviationweather.gov/adds/metars/
 
WAAA 292030Z 15003KT 120V180 8000 FEW019 25/25 Q1010 NOSIG
TAF WAAA 291700Z 2918/3024 00000KT 8000 FEW019 
     PROB50 
     TEMPO 2819/2823 6000 -RA FEW017CB BKN018 
     BECMG 2902/2904 32005KT 9000 
     BECMG 2911/2913 09002KT 8000
       
WABB 292030Z 00000KT 9999 FEW018 25/24 Q1009 NOSIG
TAF WABB 291700Z 2918/3100 00000KT 9999 SCT018 
     BECMG 2922/3000 09006KT 
     TEMPO 3000/3006 5000 RA FEW017CB
       
WADD 292030Z 05004KT 9999 BKN011 26/25 Q1010 NOSIG
TAF WADD 291700Z 2918/3018 10010KT 9999 SCT016 
     TEMPO 2921/3001 VRB05KT 5000 RA FEW015CB BKN015 
     TEMPO 3004/3008 FEW016CB SCT017 
     TEMPO 3014/3018 VRB05KT 5000 RA FEW015CB BKN015
       
WADL 292030Z AUTO 00000KT 9999 SCT008 24/24 Q1011
TAF WADL 291700Z 2918/3018 00000KT 6000 SCT016 
     BECMG 2923/3001 15012KT 9999
       
WAHS 291500Z 09008KT 6000 SCT015 27/25 Q1009 NOSIG
WAJJ 292000Z 00000KT 9999 FEW010 25/23 Q1008 NOSIG
WALL 292030Z 35003KT 4000 -RA FEW016CB SCT016 OVC090 25/25Q1011 RMK CB TO NE E AND SE
TAF WALL 291700Z 2918/3024 27004KT 9999 FEW017CB SCT018 
     TEMPO 2918/2921 7000 -RA 
     BECMG 2921/2923 SCT018 
     BECMG 3001/3003 21005KT 
     TEMPO 3006/3009 7000 -RA FEW017CB SCT018
       
WAMM 292000Z VRB02KT 9000 FEW022 24/23 Q1009 NOSIG
TAF WAMM 291700Z 2918/3024 08004KT 9999 FEW020 
     BECMG 2923/3001 31007KT SCT022 
     TEMPO 3004/3008 5000 -TSRA FEW017CB SCT019
       
WAOO 292030Z 07002KT 9999 FEW017 25/24 Q1009
TAF WAOO 291700Z 2918/3018 06005KT 9000 SCT017 
     TEMPO 2920/2924 5000 BR 
     BECMG 3005/3006 24006KT 
     PROB40 
     TEMPO 3006/3010 7000 RA
       
TAF WAPI 291700Z 2918/3006 12008KT 9000 SCT018
       
WAPP 292030Z 05004KT 020V090 8000 -RA BKN018 25/24 Q1008
TAF WAPP 291700Z 2918/3018 20006KT 9999 SCT018 
     TEMPO 2918/2921 5000 RA BKN016 
     TEMPO 2922/3000 5000 RA BKN016
       
TAF WAQQ 291700Z 2918/3006 00000KT 8000 BKN015 
     BECMG 3000/3002 9999
       
WARR 292030Z 11009KT 6000 FEW020 26/25 Q1009 NOSIG
TAF WARR 291100Z 2912/3012 15008KT 8000 SCT020 
     TEMPO 2913/2917 5000 TSRA SCT018CB 
     BECMG 2917/2919 26004KT 4000 HZ 
     BECMG 3000/3002 12010KT 9999 NSW 
     PROB40 
     TEMPO 3004/3008 4000 TSRA SCT018CB
       
WATT 291800Z 11008KT 8000 FEW018 BKN090 27/23 Q1012 NOSIG
TAF WATT 291700Z 2918/3018 10010KT 9000 SCT018 
     TEMPO 3002/3007 10010G25KT
       
WIBB 292030Z AUTO 17004KT 140V200 5000NDV -RA SCT032 BKN038 OVC120 23/23 Q1009
TAF WIBB 282300Z 2900/2924 16005KT 9999 SCT015 
     TEMPO 2913/2916 4000 -TSRA SCT012 FEW015CB
       
WIDD 292030Z 00000KT 9999 SCT014 26/25 Q1010
TAF WIDD 291700Z 2918/3018 12003KT 9000 SCT014 
     BECMG 3000/3002 16008KT
       
WIEE 292030Z AUTO 35003KT 9999NDV VCTS RA FEW100 FEW140 OVC170 26/25 Q1008
TAF WIEE 291700Z 2918/3018 35003KT 9999 FEW020 
     BECMG 2923/3002 20004KT 
     BECMG 3010/3012 12005KT SCT020
       
TAF WIHH 291700Z 2918/3018 09004KT 4000 HZ SCT020 
     TEMPO 2921/2923 00000KT 3000 BR FEW022 
     BECMG 3001/3003 22009KT 6000 FEW025
       
WIII 292030Z 27002KT 4000 BR FEW018 25/25 Q1008 NOSIG
TAF WIII 291700Z 2918/3024 VRB05KT 5000 HZ SCT020 
     BECMG 2923/3001 04010KT 9000 SCT020 
     BECMG 3010/3012 10006KT
       
WIMM 292030Z 00000KT 6000 SCT018 26/25 Q1008
TAF WIMM 291700Z 2918/3018 VRB03KT 6000 SCT018 
     BECMG 3004/3006 06010KT 8000 
     BECMG 3010/3012 VRB03KT 5000 HZ FEW017CB BKN018
       
WIOO 291500Z 05005KT 6000 BKN011 25/24 Q1010 NOSIG
WIPP 291500Z 10004KT 9999 FEW012 27/25 Q1009
TAF WIPP 291700Z 2918/3018 15005KT 9999 SCT012 
     TEMPO 2921/2924 00000KT 1500 BR 
     TEMPO 3008/3012 VRB10KT 3000 RA BKN010 FEW015CB
       
TAF WITT 291700Z 2918/3018 24008KT 9999 FEW018 3004/3006 25015KT SCT018
       
WAAA 292030Z 15003KT 120V180 8000 FEW019 25/25 Q1010 NOSIG
TAF WAAA 291700Z 2918/3024 00000KT 8000 FEW019 
     PROB50 
     TEMPO 2819/2823 6000 -RA FEW017CB BKN018 
     BECMG 2902/2904 32005KT 9000 
     BECMG 2911/2913 09002KT 8000
       
WABB 292030Z 00000KT 9999 FEW018 25/24 Q1009 NOSIG
TAF WABB 291700Z 2918/3100 00000KT 9999 SCT018 
     BECMG 2922/3000 09006KT 
     TEMPO 3000/3006 5000 RA FEW017CB
       
WADD 292030Z 05004KT 9999 BKN011 26/25 Q1010 NOSIG
TAF WADD 291700Z 2918/3018 10010KT 9999 SCT016 
     TEMPO 2921/3001 VRB05KT 5000 RA FEW015CB BKN015 
     TEMPO 3004/3008 FEW016CB SCT017 
     TEMPO 3014/3018 VRB05KT 5000 RA FEW015CB BKN015
       
WADL 292030Z AUTO 00000KT 9999 SCT008 24/24 Q1011
TAF WADL 291700Z 2918/3018 00000KT 6000 SCT016 
     BECMG 2923/3001 15012KT 9999
       
WAHS 291500Z 09008KT 6000 SCT015 27/25 Q1009 NOSIG
WAJJ 292000Z 00000KT 9999 FEW010 25/23 Q1008 NOSIG
WALL 292030Z 35003KT 4000 -RA FEW016CB SCT016 OVC090 25/25Q1011 RMK CB TO NE E AND SE
TAF WALL 291700Z 2918/3024 27004KT 9999 FEW017CB SCT018 
     TEMPO 2918/2921 7000 -RA 
     BECMG 2921/2923 SCT018 
     BECMG 3001/3003 21005KT 
     TEMPO 3006/3009 7000 -RA FEW017CB SCT018
       
WAMM 292000Z VRB02KT 9000 FEW022 24/23 Q1009 NOSIG
TAF WAMM 291700Z 2918/3024 08004KT 9999 FEW020 
     BECMG 2923/3001 31007KT SCT022 
     TEMPO 3004/3008 5000 -TSRA FEW017CB SCT019
       
WAOO 292030Z 07002KT 9999 FEW017 25/24 Q1009
TAF WAOO 291700Z 2918/3018 06005KT 9000 SCT017 
     TEMPO 2920/2924 5000 BR 
     BECMG 3005/3006 24006KT 
     PROB40 
     TEMPO 3006/3010 7000 RA
       
TAF WAPI 291700Z 2918/3006 12008KT 9000 SCT018
       
WAPP 292030Z 05004KT 020V090 8000 -RA BKN018 25/24 Q1008
TAF WAPP 291700Z 2918/3018 20006KT 9999 SCT018 
     TEMPO 2918/2921 5000 RA BKN016 
     TEMPO 2922/3000 5000 RA BKN016
       
TAF WAQQ 291700Z 2918/3006 00000KT 8000 BKN015 
     BECMG 3000/3002 9999
       
WARR 292030Z 11009KT 6000 FEW020 26/25 Q1009 NOSIG
TAF WARR 291100Z 2912/3012 15008KT 8000 SCT020 
     TEMPO 2913/2917 5000 TSRA SCT018CB 
     BECMG 2917/2919 26004KT 4000 HZ 
     BECMG 3000/3002 12010KT 9999 NSW 
     PROB40 
     TEMPO 3004/3008 4000 TSRA SCT018CB
       
WATT 291800Z 11008KT 8000 FEW018 BKN090 27/23 Q1012 NOSIG
TAF WATT 291700Z 2918/3018 10010KT 9000 SCT018 
     TEMPO 3002/3007 10010G25KT
       
WABB 292030Z 00000KT 9999 FEW018 25/24 Q1009 NOSIG
TAF WABB 291700Z 2918/3100 00000KT 9999 SCT018 
     BECMG 2922/3000 09006KT 
     TEMPO 3000/3006 5000 RA FEW017CB
       
WAAA 292030Z 15003KT 120V180 8000 FEW019 25/25 Q1010 NOSIG
TAF WAAA 291700Z 2918/3024 00000KT 8000 FEW019 
     PROB50 
     TEMPO 2819/2823 6000 -RA FEW017CB BKN018 
     BECMG 2902/2904 32005KT 9000 
     BECMG 2911/2913 09002KT 8000
       
WAAA 292030Z 15003KT 120V180 8000 FEW019 25/25 Q1010 NOSIG
TAF WAAA 291700Z 2918/3024 00000KT 8000 FEW019 
     PROB50 
     TEMPO 2819/2823 6000 -RA FEW017CB BKN018 
     BECMG 2902/2904 32005KT 9000 
     BECMG 2911/2913 09002KT 8000
       
WABB 292030Z 00000KT 9999 FEW018 25/24 Q1009 NOSIG
TAF WABB 291700Z 2918/3100 00000KT 9999 SCT018 
     BECMG 2922/3000 09006KT 
     TEMPO 3000/3006 5000 RA FEW017CB
       
WADD 292030Z 05004KT 9999 BKN011 26/25 Q1010 NOSIG
TAF WADD 291700Z 2918/3018 10010KT 9999 SCT016 
     TEMPO 2921/3001 VRB05KT 5000 RA FEW015CB BKN015 
     TEMPO 3004/3008 FEW016CB SCT017 
     TEMPO 3014/3018 VRB05KT 5000 RA FEW015CB BKN015
       
WADL 292030Z AUTO 00000KT 9999 SCT008 24/24 Q1011
TAF WADL 291700Z 2918/3018 00000KT 6000 SCT016 
     BECMG 2923/3001 15012KT 9999
       
WAHS 291500Z 09008KT 6000 SCT015 27/25 Q1009 NOSIG
WAJJ 292000Z 00000KT 9999 FEW010 25/23 Q1008 NOSIG
WALL 292030Z 35003KT 4000 -RA FEW016CB SCT016 OVC090 25/25Q1011 RMK CB TO NE E AND SE
TAF WALL 291700Z 2918/3024 27004KT 9999 FEW017CB SCT018 
     TEMPO 2918/2921 7000 -RA 
     BECMG 2921/2923 SCT018 
     BECMG 3001/3003 21005KT 
     TEMPO 3006/3009 7000 -RA FEW017CB SCT018
       
WAMM 292000Z VRB02KT 9000 FEW022 24/23 Q1009 NOSIG
TAF WAMM 291700Z 2918/3024 08004KT 9999 FEW020 
     BECMG 2923/3001 31007KT SCT022 
     TEMPO 3004/3008 5000 -TSRA FEW017CB SCT019
       
WAOO 292030Z 07002KT 9999 FEW017 25/24 Q1009
TAF WAOO 291700Z 2918/3018 06005KT 9000 SCT017 
     TEMPO 2920/2924 5000 BR 
     BECMG 3005/3006 24006KT 
     PROB40 
     TEMPO 3006/3010 7000 RA
       
TAF WAPI 291700Z 2918/3006 12008KT 9000 SCT018
       
WAPP 292030Z 05004KT 020V090 8000 -RA BKN018 25/24 Q1008
TAF WAPP 291700Z 2918/3018 20006KT 9999 SCT018 
     TEMPO 2918/2921 5000 RA BKN016 
     TEMPO 2922/3000 5000 RA BKN016
       
TAF WAQQ 291700Z 2918/3006 00000KT 8000 BKN015 
     BECMG 3000/3002 9999
       
WARR 292030Z 11009KT 6000 FEW020 26/25 Q1009 NOSIG
TAF WARR 291100Z 2912/3012 15008KT 8000 SCT020 
     TEMPO 2913/2917 5000 TSRA SCT018CB 
     BECMG 2917/2919 26004KT 4000 HZ 
     BECMG 3000/3002 12010KT 9999 NSW 
     PROB40 
     TEMPO 3004/3008 4000 TSRA SCT018CB
       
WATT 291800Z 11008KT 8000 FEW018 BKN090 27/23 Q1012 NOSIG
TAF WATT 291700Z 2918/3018 10010KT 9000 SCT018 
     TEMPO 3002/3007 10010G25KT
       
WIBB 292030Z AUTO 17004KT 140V200 5000NDV -RA SCT032 BKN038 OVC120 23/23 Q1009
TAF WIBB 282300Z 2900/2924 16005KT 9999 SCT015 
     TEMPO 2913/2916 4000 -TSRA SCT012 FEW015CB
       
WIDD 292030Z 00000KT 9999 SCT014 26/25 Q1010
TAF WIDD 291700Z 2918/3018 12003KT 9000 SCT014 
     BECMG 3000/3002 16008KT
       
WIEE 292030Z AUTO 35003KT 9999NDV VCTS RA FEW100 FEW140 OVC170 26/25 Q1008
TAF WIEE 291700Z 2918/3018 35003KT 9999 FEW020 
     BECMG 2923/3002 20004KT 
     BECMG 3010/3012 12005KT SCT020
       
TAF WIHH 291700Z 2918/3018 09004KT 4000 HZ SCT020 
     TEMPO 2921/2923 00000KT 3000 BR FEW022 
     BECMG 3001/3003 22009KT 6000 FEW025
       
WIII 292030Z 27002KT 4000 BR FEW018 25/25 Q1008 NOSIG
TAF WIII 291700Z 2918/3024 VRB05KT 5000 HZ SCT020 
     BECMG 2923/3001 04010KT 9000 SCT020 
     BECMG 3010/3012 10006KT
       
WIMM 292030Z 00000KT 6000 SCT018 26/25 Q1008
TAF WIMM 291700Z 2918/3018 VRB03KT 6000 SCT018 
     BECMG 3004/3006 06010KT 8000 
     BECMG 3010/3012 VRB03KT 5000 HZ FEW017CB BKN018
       
WIOO 291500Z 05005KT 6000 BKN011 25/24 Q1010 NOSIG
WIPP 291500Z 10004KT 9999 FEW012 27/25 Q1009
TAF WIPP 291700Z 2918/3018 15005KT 9999 SCT012 
     TEMPO 2921/2924 00000KT 1500 BR 
     TEMPO 3008/3012 VRB10KT 3000 RA BKN010 FEW015CB
       
TAF WITT 291700Z 2918/3018 24008KT 9999 FEW018 3004/3006 25015KT SCT018
       
WAPP 292030Z 05004KT 020V090 8000 -RA BKN018 25/24 Q1008
TAF WAPP 291700Z 2918/3018 20006KT 9999 SCT018 
     TEMPO 2918/2921 5000 RA BKN016 
     TEMPO 2922/3000 5000 RA BKN016
       
TAF WIBD 282300Z 2900/2924 15008KT 9999 SCT014
       
WIMM 292030Z 00000KT 6000 SCT018 26/25 Q1008
TAF WIMM 291700Z 2918/3018 VRB03KT 6000 SCT018 
     BECMG 3004/3006 06010KT 8000 
     BECMG 3010/3012 VRB03KT 5000 HZ FEW017CB BKN018
       
WIBB 292030Z AUTO 17004KT 140V200 5000NDV -RA SCT032 BKN038 OVC120 23/23 Q1009
TAF WIBB 282300Z 2900/2924 16005KT 9999 SCT015 
     TEMPO 2913/2916 4000 -TSRA SCT012 FEW015CB
       
WIDD 292030Z 00000KT 9999 SCT014 26/25 Q1010
TAF WIDD 291700Z 2918/3018 12003KT 9000 SCT014 
     BECMG 3000/3002 16008KT
       
WIEE 292030Z AUTO 35003KT 9999NDV VCTS RA FEW100 FEW140 OVC170 26/25 Q1008
TAF WIEE 291700Z 2918/3018 35003KT 9999 FEW020 
     BECMG 2923/3002 20004KT 
     BECMG 3010/3012 12005KT SCT020
       
TAF WIHH 291700Z 2918/3018 09004KT 4000 HZ SCT020 
     TEMPO 2921/2923 00000KT 3000 BR FEW022 
     BECMG 3001/3003 22009KT 6000 FEW025
       
WIII 292030Z 27002KT 4000 BR FEW018 25/25 Q1008 NOSIG
TAF WIII 291700Z 2918/3024 VRB05KT 5000 HZ SCT020 
     BECMG 2923/3001 04010KT 9000 SCT020 
     BECMG 3010/3012 10006KT
       
WIMM 292030Z 00000KT 6000 SCT018 26/25 Q1008
TAF WIMM 291700Z 2918/3018 VRB03KT 6000 SCT018 
     BECMG 3004/3006 06010KT 8000 
     BECMG 3010/3012 VRB03KT 5000 HZ FEW017CB BKN018
       
WIOO 291500Z 05005KT 6000 BKN011 25/24 Q1010 NOSIG
WIPP 291500Z 10004KT 9999 FEW012 27/25 Q1009
TAF WIPP 291700Z 2918/3018 15005KT 9999 SCT012 
     TEMPO 2921/2924 00000KT 1500 BR 
     TEMPO 3008/3012 VRB10KT 3000 RA BKN010 FEW015CB
       
TAF WITT 291700Z 2918/3018 24008KT 9999 FEW018 3004/3006 25015KT SCT018
       
WAMM 292000Z VRB02KT 9000 FEW022 24/23 Q1009 NOSIG
TAF WAMM 291700Z 2918/3024 08004KT 9999 FEW020 
     BECMG 2923/3001 31007KT SCT022 
     TEMPO 3004/3008 5000 -TSRA FEW017CB SCT019
       
WAJJ 292000Z 00000KT 9999 FEW010 25/23 Q1008 NOSIG
WIII 292030Z 27002KT 4000 BR FEW018 25/25 Q1008 NOSIG
TAF WIII 291700Z 2918/3024 VRB05KT 5000 HZ SCT020 
     BECMG 2923/3001 04010KT 9000 SCT020 
     BECMG 3010/3012 10006KT
       
TAF WITT 291700Z 2918/3018 24008KT 9999 FEW018 3004/3006 25015KT SCT018
       
WIPP 291500Z 10004KT 9999 FEW012 27/25 Q1009
TAF WIPP 291700Z 2918/3018 15005KT 9999 SCT012 
     TEMPO 2921/2924 00000KT 1500 BR 
     TEMPO 3008/3012 VRB10KT 3000 RA BKN010 FEW015CB
       
WIBB 292030Z AUTO 17004KT 140V200 5000NDV -RA SCT032 BKN038 OVC120 23/23 Q1009
TAF WIBB 282300Z 2900/2924 16005KT 9999 SCT015 
     TEMPO 2913/2916 4000 -TSRA SCT012 FEW015CB
       
WIOO 291500Z 05005KT 6000 BKN011 25/24 Q1010 NOSIG